Location: *
(43.2048°N, 0.1612°E)
Time: 18:02:02
(UTC+00:00)

BREEZE-M DEB (TANK) - Pass Details

Date: 30 September 2023
Orbit: 414 x 18471 km, 52.6° (Epoch: 05 December)

Event Time Altitude Azimuth Distance (km) Brightness Sun altitude
Exits shadow 03:37:53 24° 359° (N) 1,101 4.5 -25.3°
Drops below altitude 10° 03:39:41 10° 38° (NE) 1,552 5.9 -25.0°
Sets 03:41:31 0° 54° (NE) 2,355 7.3 -24.7°
